GW1815 Weather Reports


time (UTC)temp
C
wind
direction
speed
KPH
gust
KPH
rain 1hr
cm
rain 24hr
cm
rain mn
cm
humidity
%
barometer
mb
20260503184541 16 188 22.5 45.1 0.00 0.00 0.00 51 1007.5
20260503183032 16 192 17.7 53.1 0.00 0.00 0.00 51 1007.7
20260503181538 16 194 20.9 48.3 0.00 0.00 0.00 51 1008.0
20260503180047 16 159 17.7 46.7 0.00 0.00 0.00 57 1008.6
20260503174543 15 167 19.3 48.3 0.00 0.00 0.00 58 1009.0
20260503173041 12 173 20.9 46.7 0.00 0.00 0.00 62 1009.3
20260503171534 12 166 20.9 43.5 0.00 0.00 0.00 62 1009.9
20260503081539 6 0 1.6 14.5 0.00 0.00 0.00 65 1012.7
20260503071536 4 0 1.6 8.0 0.00 0.00 0.00 70 1013.1
20260503054531 2 192 3.2 11.3 0.00 0.00 0.00 79 1013.8
20260503053032 2 0 1.6 11.3 0.00 0.00 0.00 80 1013.9
20260503051537 2 198 0.0 6.4 0.00 0.00 0.00 81 1014.0
20260503050033 2 0 0.0 4.8 0.00 0.00 0.00 81 1014.2
20260503044533 2 194 0.0 8.0 0.00 0.00 0.00 81 1014.1
20260503043032 2 152 0.0 3.2 0.00 0.00 0.00 82 1014.2
20260503041534 2 207 1.6 8.0 0.00 0.00 0.00 83 1014.2
20260503040030 2 167 1.6 8.0 0.00 0.00 0.00 84 1014.4
20260503034533 2 200 1.6 8.0 0.00 0.00 0.00 85 1014.5
20260503033037 2 178 1.6 11.3 0.00 0.00 0.00 84 1014.6
20260503031535 3 175 0.0 6.4 0.00 0.00 0.00 83 1014.7
20260503030048 3 0 0.0 3.2 0.00 0.00 0.00 82 1014.8
20260503024535 3 0 0.0 0.0 0.00 0.00 0.00 81 1014.9
20260503023033 3 0 0.0 0.0 0.00 0.00 0.00 80 1014.8
20260503021534 4 0 0.0 0.0 0.00 0.00 0.00 79 1014.8
20260503020032 5 0 0.0 1.6 0.00 0.00 0.00 78 1014.7
20260503014533 5 0 0.0 3.2 0.00 0.00 0.00 77 1014.7
20260503013030 6 0 0.0 0.0 0.00 0.00 0.00 76 1014.5
20260503011530 6 0 0.0 9.7 0.00 0.00 0.00 74 1014.6
20260503010032 6 148 0.0 11.3 0.00 0.00 0.00 73 1014.6
20260503004533 7 0 3.2 12.9 0.00 0.00 0.00 72 1014.7
20260503003031 7 159 3.2 12.9 0.00 0.00 0.00 70 1014.8
20260503001532 7 140 4.8 16.1 0.00 0.00 0.00 68 1015.0
20260503000034 8 159 4.8 19.3 0.00 0.00 0.00 66 1015.0
20260502234535 8 170 6.4 19.3 0.00 0.00 0.00 64 1015.1
20260502233032 8 170 12.9 24.1 0.00 0.00 0.00 62 1015.4
20260502231531 8 182 8.0 22.5 0.00 0.00 0.00 62 1015.4
20260502230032 8 165 8.0 24.1 0.00 0.00 0.00 63 1015.6
20260502224532 8 147 11.3 24.1 0.00 0.00 0.00 61 1015.9
20260502223034 9 178 4.8 24.1 0.00 0.00 0.00 60 1015.8
20260502221531 8 130 11.3 27.4 0.00 0.00 0.00 59 1015.9
20260502220032 8 184 17.7 29.0 0.00 0.00 0.00 58 1016.1
20260502214532 8 153 12.9 27.4 0.00 0.00 0.00 56 1016.1
20260502213039 8 131 9.7 22.5 0.00 0.00 0.00 57 1016.2
20260502211535 8 92 6.4 24.1 0.00 0.00 0.00 56 1016.4
20260502210032 9 116 9.7 27.4 0.00 0.00 0.00 55 1016.5
20260502204530 10 169 14.5 24.1 0.00 0.00 0.00 52 1016.6
20260502203032 9 189 11.3 27.4 0.00 0.00 0.00 53 1016.8
20260502201534 10 157 11.3 27.4 0.00 0.00 0.00 50 1017.1
20260502200032 11 152 11.3 24.1 0.00 0.00 0.00 51 1017.1
20260502194533 12 165 6.4 25.7 0.00 0.00 0.00 49 1017.3
20260502193030 11 151 14.5 25.7 0.00 0.00 0.00 48 1017.3
20260502191530 11 140 12.9 29.0 0.00 0.00 0.00 48 1017.7
20260502190035 10 193 14.5 24.1 0.00 0.00 0.00 52 1017.8